CAPE
453 162 788 1549 412 126 94 130 127 90 113 122 159 157 193 170 185 7 415 509 1019 1426 1901 2271 2582 2044 1948 2078 2064 2020 2031 2019 2037 1992 1984 1988 1904 1986 2044 1963 2122 1648 1654 1733 1641 1594 1480 1552 1575
326 657 1046 906 114 79 123 103 103 81 38 30 75 50 123 148 124 208 429 842 1230 1490 1715 1960 2569 2312 2071 2044 2055 1882 1891 1908 1999 2022 2130 2211 1939 1855 1889 2028 1678 1336 1572 1616 1489 1529 1568 1308 1176
279 98 114 155 241 85 87 118 206 194 169 140 15 16 8 44 179 384 701 946 1136 1315 1701 1813 2191 2115 1971 1901 2002 2200 1911 2036 1966 1914 2026 2048 1994 1846 1963 1532 1413 1598 1722 1693 1646 1678 1728 1694 1713
1464 960 480 191 314 152 65 86 222 259 161 135 50 28 28 74 462 607 650 958 928 1341 1594 2309 2095 1901 1938 2099 1829 1877 1950 1898 2092 2213 2020 1907 1638 1718 1561 1588 1696 1723 1659 1653 1537 1285 1260 1444 1561
9 54 125 105 315 19 37 151 211 102 98 51 53 87 93 278 355 459 736 930 1080 1400 1675 1875 2330 1879 1904 1870 2051 2099 2073 2129 2051 2002 1824 1666 1615 1545 1763 1714 1650 1571 1514 1443 1324 1103 1287 1459 1275
26 11 116 133 167 124 114 225 149 86 176 120 58 75 170 245 419 673 746 847 948 1290 1601 1717 2027 1981 1947 1987 1938 2064 2053 2009 2076 1679 1098 1010 958 1069 1212 1496 1536 1499 1471 1380 1198 1309 1438 1433 1419
188 180 105 130 160 145 236 236 240 172 150 160 82 106 231 298 351 642 693 727 953 1210 1362 1450 1558 1532 2004 1723 1867 1872 1863 1984 2050 1217 982 929 847 885 1020 1133 1192 1190 1192 1216 1236 1356 1544 1622 1782
278 441 487 316 190 233 214 278 185 166 203 67 123 73 163 232 372 527 572 649 806 940 1034 797 988 1383 1445 1431 1768 1739 2067 1982 1314 987 902 810 709 707 744 1099 1275 1173 1218 1281 1394 1504 1952 1851 1925
178 282 421 183 150 115 103 153 130 142 120 268 260 24 10 224 404 513 466 486 543 622 561 765 757 521 1202 1046 1177 1747 1717 1416 873 726 719 691 331 390 376 621 697 826 914 1040 1532 2091 2516 2240 2076
642 203 264 200 215 134 100 55 65 144 179 229 85 0 0 62 287 426 369 288 157 160 290 741 909 177 211 690 714 877 884 618 499 445 460 402 274 150 222 511 1260 1199 1482 1369 449 850 1995 608 1571
505 514 252 119 101 134 56 34 0 160 186 87 15 1 0 0 150 240 254 163 0 167 368 526 640 292 0 99 380 435 472 368 527 693 645 831 1013 755 560 268 467 74 140 261 220 358 437 646 1063
160 261 258 376 262 103 93 94 87 100 92 86 97 0 0 0 0 39 171 124 0 74 336 445 506 191 0 15 12 73 389 532 547 250 808 705 806 797 371 73 175 27 0 32 41 157 474 570 614
260 386 216 172 131 104 185 145 89 73 86 92 69 0 0 0 5 0 0 0 0 138 314 356 266 0 0 19 19 127 404 813 961 538 377 325 329 49 0 82 0 4 2 0 30 311 582 612 928
92 139 180 137 86 126 140 98 142 88 110 79 24 0 0 0 5 8 0 0 0 50 96 274 11 0 0 0 40 107 312 807 1420 830 0 19 130 117 3 0 2 26 30 132 357 659 820 966 692
95 153 149 122 141 176 172 138 70 103 79 71 40 0 0 0 0 0 0 0 0 0 0 6 0 0 0 173 87 155 251 879 1577 979 218 801 392 405 214 53 37 301 188 251 508 613 433 479 552
117 87 96 120 152 148 157 107 143 90 78 67 46 0 0 0 1 4 0 0 0 0 0 7 176 163 128 189 459 220 365 692 797 1293 532 1068 1238 844 303 309 215 490 341 574 667 518 347 829 883
109 51 77 44 125 81 91 102 136 110 97 58 40 0 0 0 10 7 0 0 0 0 0 0 108 203 234 173 166 366 437 288 393 987 861 701 800 722 726 542 548 561 670 1144 1221 1249 1098 802 567
91 51 22 80 72 83 100 48 134 88 59 59 83 54 11 0 1 9 3 0 0 0 0 0 13 105 366 159 72 156 150 191 153 236 604 974 814 633 502 942 974 719 671 461 719 1232 980 670 401
28 31 138 113 150 123 195 138 60 178 172 121 117 134 46 19 0 0 10 5 0 0 4 0 0 29 165 281 195 140 109 71 116 197 144 779 939 578 566 900 789 609 492 297 722 984 504 360 251
46 42 79 65 223 242 219 257 235 249 182 120 423 136 120 108 57 20 41 8 1 0 0 13 37 58 0 146 141 18 59 210 1148 1273 663 981 1186 1022 953 1045 1228 583 228 577 521 401 381 544 189
165 145 73 33 106 200 67 254 245 140 287 579 705 420 224 242 103 121 122 92 63 18 0 0 22 64 111 108 51 227 668 725 642 1060 1083 1064 1066 988 1086 977 1021 1016 861 656 475 345 215 75 170
107 208 155 48 44 147 74 63 122 57 89 211 450 429 308 222 137 84 160 158 154 125 0 55 164 177 285 230 166 344 507 589 389 577 814 748 633 701 724 711 807 771 618 508 301 298 212 226 159
128 105 78 47 58 211 119 106 50 66 66 90 210 69 257 197 233 202 180 214 205 230 248 116 237 251 345 569 602 739 719 539 438 392 397 624 532 495 100 270 437 363 364 190 140 46 47 77 84
227 80 58 72 125 110 58 69 16 24 1 20 40 158 363 649 805 514 174 293 272 300 245 302 413 873 725 787 790 890 877 666 494 477 448 319 233 139 96 103 39 102 80 89 54 14 10 38 56
146 92 73 77 159 102 130 15 22 61 170 97 112 130 252 225 309 458 272 283 414 447 416 432 621 1280 1268 966 937 908 895 805 718 562 466 386 266 246 235 149 123 213 192 105 135 34 12 9 11
75 6 149 126 44 9 168 114 147 161 145 91 51 42 52 63 1 375 409 330 459 473 450 536 773 1178 1403 1311 1144 921 767 672 630 597 147 232 247 221 161 298 343 298 238 294 90 34 22 42 42
5 79 134 83 0 42 36 68 261 257 221 29 385 273 108 13 257 696 1013 1083 1062 799 890 887 788 1136 1435 1200 762 618 583 493 422 235 122 117 111 164 265 176 242 246 31 23 38 20 35 42 49
144 54 97 30 0 0 53 197 130 227 182 47 354 1874 1533 938 863 1011 898 993 1071 1174 1253 1333 1159 1029 1069 974 751 530 514 376 292 197 107 7 40 70 49 28 20 12 16 24 17 16 14 12 19
0 22 5 11 82 0 0 115 492 269 218 203 842 1098 1272 1548 849 1006 1141 1233 1302 1461 1418 1675 1485 1210 1098 905 774 575 440 442 339 216 106 2 0 0 0 3 13 11 14 4 0 0 0 0 4
0 0 0 0 0 0 0 362 496 423 280 652 973 1241 1396 1416 1188 1105 1045 1221 1292 1139 1130 962 832 885 754 696 639 470 361 259 76 14 0 0 0 0 21 31 30 38 28 10 14 1 6 7 3
CIN
-176 -229 -176 -94 -69 -30 -32 -39 -60 -32 -25 -17 -20 -33 -36 -65 -31 -37 -105 -90 -39 -11 0 0 0 0 0 0 0 0 0 0 0 0 0 0 0 0 0 0 0 0 0 0 0 0 0 -4 0
-133 -196 -195 -123 -25 -24 -13 -33 -41 -33 -22 -34 -18 -62 -26 -45 -52 -198 -159 -59 -48 -19 -1 -1 0 0 0 0 0 0 0 0 0 0 0 0 0 0 0 0 0 0 0 0 0 0 0 -5 -16
-255 -280 -248 -118 -86 -57 -18 -19 -31 -29 -31 -16 -45 -78 -220 -252 -208 -152 -95 -66 -62 -41 -12 -1 0 0 0 0 0 0 0 0 0 0 0 0 0 0 0 0 0 0 0 0 0 0 0 0 -6
-125 -136 -118 -96 -33 -38 -28 -40 -42 -14 -30 -30 -53 -232 -239 -199 -125 -121 -101 -89 -119 -59 -23 0 0 0 0 0 0 0 0 0 0 0 0 0 0 0 0 0 0 0 0 0 0 -6 -9 -5 -6
-9 -20 -104 -64 -68 -46 -22 -25 -37 -18 -55 -182 -200 -202 -183 -99 -106 -109 -92 -103 -113 -56 -28 -3 0 0 0 0 0 0 0 0 0 0 0 0 0 0 0 0 0 -1 -5 -11 -14 -27 -13 -9 -11
-124 -151 -46 -70 -76 -34 -11 -29 -23 -57 -118 -151 -188 -223 -126 -83 -87 -83 -110 -108 -110 -72 -24 -10 0 0 0 0 0 0 0 0 0 0 -13 -18 -22 -22 -9 -3 -2 -9 -21 -35 -46 -33 -19 -20 -15
-194 -147 -64 -43 -56 -80 -59 -41 -27 -146 -123 -128 -164 -186 -120 -75 -76 -73 -80 -116 -96 -55 -36 -17 -6 -3 0 0 0 0 0 0 0 -7 -43 -58 -64 -67 -64 -53 -44 -51 -56 -52 -46 -31 -22 -20 -17
-250 -154 -78 -73 -25 -21 -54 -13 -33 -13 -88 -134 -31 -158 -151 -97 -89 -83 -93 -99 -106 -83 -68 -94 -50 -16 -4 -1 0 0 0 0 -18 -58 -69 -79 -85 -76 -64 -55 -52 -48 -40 -34 -35 -23 -3 -11 -37
-316 -157 -107 -55 -54 -45 -27 -62 -13 -7 -105 -24 -22 -131 -66 -92 -76 -66 -63 -65 -98 -89 -106 -94 -101 -117 -24 -24 -3 0 0 -2 -52 -82 -85 -79 -118 -94 -113 -88 -82 -71 -75 -73 -69 -45 -6 -5 -38
-171 -144 -99 -73 -133 -32 -12 -19 -8 -79 -89 -43 -19 0 0 -111 -97 -79 -80 -102 -173 -109 -81 -92 -75 -230 -177 -60 -58 -45 -47 -79 -89 -91 -72 -91 -91 -135 -121 -113 -48 -88 -94 -87 -205 -25 -102 -35 -74
-152 -122 -73 -43 -144 -38 -21 -22 0 -84 -48 -31 -131 -13 0 0 -59 -77 -82 -138 0 -92 -74 -95 -95 -149 0 -194 -119 -129 -126 -31 -13 -15 -31 -62 -98 -98 -78 -162 -139 -32 -22 -35 -322 -289 -30 -24 -104
-26 -119 -14 -15 -25 -23 -5 -11 -20 -66 -86 -48 -27 0 0 0 0 -25 -73 -104 0 -109 -78 -74 -107 -130 0 -225 -164 -48 -24 -28 -44 -57 -49 -62 -90 -81 -74 -53 -101 -28 0 -91 -46 -26 -26 -28 -31
-51 -65 -38 -32 -38 -5 -35 -30 -19 -69 -73 -50 -25 0 0 0 -39 0 0 0 0 -117 -69 -78 -96 0 0 -149 -117 -44 -23 -24 -42 -61 -72 -45 -198 -111 -1 -104 0 -203 -203 0 -26 -207 -137 -47 -44
-12 -40 -8 -23 -15 -11 -28 -14 -113 -43 -33 -23 -23 0 0 0 -37 -40 0 0 0 -65 -80 -66 -40 0 0 0 -54 -30 -23 -21 -24 -35 0 -79 -289 -384 -51 0 -15 -525 -36 -32 -22 -35 -69 -35 -157
-24 -10 -4 -10 -10 -53 -46 -65 -49 -52 -45 -36 -25 0 0 0 0 -1 0 0 0 0 0 -7 0 0 0 -101 -176 -31 -21 -53 -48 -33 -16 -26 -38 -49 -40 -57 -49 -26 -17 -32 -16 -27 -109 -30 -66
-12 -12 -6 -12 -3 -20 -18 -44 -130 -58 -49 -31 -42 0 0 0 -2 -4 -1 0 0 0 0 -23 -82 -83 -53 -51 -41 -32 -20 -11 -23 -28 -40 -30 -34 -58 -55 -24 -39 -23 -72 -49 -32 -20 -27 -44 -48
-1 -13 -16 -17 -10 -13 -3 -21 -55 -73 -112 -45 -58 0 0 0 -5 -2 0 0 0 0 0 0 -89 -78 -61 -23 -46 -64 -48 -43 -20 -31 -99 -79 -73 -109 -58 -35 -39 -48 -53 -29 -38 -40 -63 -115 -116
-9 -7 -28 -64 -41 -53 -20 0 -31 -31 -23 -19 -7 -3 -13 0 -1 -2 -2 0 0 0 0 0 -34 -87 -39 -76 -103 -6 -17 -12 -5 -2 -47 -48 -41 -35 -52 -51 -54 -53 -31 -22 -104 -77 -92 -146 -155
-6 -35 -104 -145 -91 -57 -27 -17 -6 -105 -62 -53 -83 -4 -39 -130 0 0 -2 -6 0 0 -114 -1 -1 -109 -57 -56 -59 -11 -42 -53 -18 -1 -1 -122 -37 -19 -21 -68 -49 -45 -19 -15 -145 -127 -102 -151 -188
-54 -67 -70 -48 -119 -93 -134 -55 -41 -73 -194 -279 -140 -5 -46 -3 -45 -16 -37 -4 -1 0 0 -108 -137 -109 0 -62 -43 -10 -89 -90 -42 -87 -163 -58 -105 -83 -41 -57 -63 -29 -43 -149 -126 -118 -114 -118 -215
-164 -119 -60 -1 -32 -198 -77 -89 -37 -39 -253 -261 -196 -235 -166 -210 -11 -26 -41 -19 -16 -32 0 0 -33 -124 -205 -93 -71 -125 -73 -25 -16 -35 -89 -54 -37 -76 -56 -61 -55 -34 -31 -45 -72 -124 -115 -129 -159
-213 -223 -139 -18 -28 -53 -117 -49 -192 -58 -222 -296 -202 -228 -182 -71 -35 -30 -36 -27 -13 -16 0 -74 -91 -52 -209 -110 -129 -50 -36 -6 -125 -58 -40 -39 -34 -85 -93 -103 -97 -116 -84 -44 -58 -57 -83 -96 -100
-188 -104 -87 -85 -16 -42 -62 -106 -152 -156 -128 -309 -241 -156 -47 -341 -45 -202 -56 -27 -17 -27 -7 -53 -83 -75 -150 -64 -99 -57 -38 -28 -75 -191 -74 -69 -55 -44 -103 -121 -45 -52 -25 -35 -54 -57 -122 -140 -41
-140 -135 -24 -37 -88 -35 -169 -177 -104 -208 -57 -323 -227 -286 -266 -260 -231 -246 -81 -44 -29 -29 -87 -36 -21 -166 -149 -144 -94 -34 -27 -52 -72 -80 -129 -41 -37 -30 -29 -22 -209 -100 -101 -61 -62 -134 -10 -32 -45
-2 -20 -28 -41 -44 -20 -93 -25 -72 -210 -245 -237 -331 -135 -127 -110 -52 -178 -57 -34 -62 -36 -59 -95 -110 -166 -112 -108 -77 -53 -51 -46 -42 -45 -28 -11 -69 -59 -40 -54 -53 -22 -20 -23 -75 -133 -8 -4 -6
-32 -284 -53 -16 -22 -26 -115 -159 -122 -411 -232 -302 -187 -87 -65 -438 -49 -138 -97 -46 -50 -36 -53 -99 -274 -179 -113 -60 -54 -41 -57 -65 -58 -47 -204 -181 -163 -130 -150 -59 -16 -9 -1 -2 -42 -17 0 0 0
-160 -123 -49 -37 0 -142 -159 -260 -375 -363 -187 -131 -208 -161 -142 -349 -305 -162 -214 -200 -231 -283 -254 -283 -66 -174 -88 -72 -81 -67 -63 -97 -68 -60 -67 -118 -220 -154 -98 -92 -46 -28 -78 -23 -1 -2 0 0 0
-79 -75 -29 -8 0 0 -88 -83 -48 -406 -199 -59 -248 -28 -72 -87 -124 -134 -163 -142 -153 -188 -221 -207 -186 -164 -113 -72 -83 -82 -72 -109 -83 -81 -47 -42 -223 -223 -248 -251 -242 -209 -156 -103 -83 -12 -1 -1 0
0 -34 -33 -23 -28 0 0 -31 -159 -223 -245 -66 -230 -216 -125 -53 -42 -115 -153 -173 -147 -139 -95 -114 -81 -71 -63 -84 -69 -114 -86 -87 -83 -70 -47 -19 0 0 0 -164 -267 -291 -250 -209 0 0 0 -1 -2
0 0 0 0 0 0 0 -80 -197 -162 -112 -369 -273 -234 -174 -116 -89 -61 -139 -106 -109 -124 -102 -39 -112 -124 -72 -71 -80 -74 -90 -58 -113 -143 0 0 0 0 -174 -181 -184 -172 -202 -205 -130 -22 -77 -33 0
Wind_Speed
15 14 10 8 9 5 nan 11 7 nan 7 12 6 6 7 8 7 nan 4 4 7 4 2 4 7 8 7 6 6 6 7 6 4 2 2 1 2 4 6 7 6 6 9 9 10 11 10 9 11
14 15 10 12 10 nan 13 9 6 nan nan nan nan nan 2 5 2 8 5 8 7 5 1 2 7 8 8 7 7 6 6 4 4 2 2 2 3 6 5 5 6 8 11 11 15 16 15 13 11
13 nan 13 9 14 nan nan 12 10 13 15 12 nan nan nan nan 13 9 10 11 9 7 3 5 8 9 8 6 5 4 5 3 3 2 2 2 3 4 5 4 6 10 12 14 18 20 19 17 17
3 12 11 12 15 10 nan nan 11 8 7 5 nan nan nan nan 6 11 16 15 12 7 4 7 9 9 6 4 4 4 3 4 4 4 3 3 5 6 5 6 7 11 14 15 18 19 21 20 22
nan nan 8 15 14 nan nan 9 9 6 nan nan nan nan nan 10 17 21 17 14 11 7 6 9 10 8 5 4 3 3 2 3 3 6 7 7 8 9 8 8 9 12 15 17 18 24 21 22 20
nan nan 14 12 14 8 7 13 8 nan 10 13 nan nan 9 22 24 20 17 13 9 10 8 8 8 5 2 2 3 3 1 2 4 5 6 7 8 8 9 9 10 13 15 17 21 23 21 20 23
9 11 10 12 12 10 11 12 11 16 20 13 nan 10 12 22 23 17 12 9 9 11 10 8 7 6 5 3 4 3 0 1 4 5 5 7 7 7 6 6 9 14 15 15 18 21 17 19 17
7 5 13 16 12 7 11 14 14 20 13 nan 19 nan 19 22 23 19 11 9 10 13 12 11 13 10 9 8 5 3 2 4 4 5 6 5 5 4 6 8 11 14 16 15 15 17 14 18 14
9 6 14 13 7 6 11 9 15 12 19 18 15 nan nan 24 22 17 13 10 13 10 13 16 16 17 13 9 8 6 4 6 7 4 3 4 6 2 5 5 8 13 13 14 15 16 16 13 15
4 9 13 8 6 5 17 nan nan 9 12 13 nan nan nan nan 18 19 20 16 16 13 17 17 17 18 15 11 7 5 7 6 6 4 8 2 1 4 1 3 4 7 6 6 10 11 11 6 7
0 11 11 14 10 13 nan nan nan 16 15 nan nan nan nan nan 22 21 22 21 nan 19 15 16 14 16 nan nan 8 9 7 5 4 1 2 1 2 4 7 3 4 nan 6 8 6 9 8 3 9
12 16 15 3 11 10 nan nan nan 18 nan nan nan nan nan nan nan nan 20 18 nan nan 18 18 15 11 nan nan nan nan 7 5 5 7 7 3 2 3 5 nan 5 nan nan nan nan 7 8 7 12
10 16 10 7 8 5 13 2 nan nan nan nan nan nan nan nan nan nan nan nan nan 14 14 16 12 nan nan nan nan 8 10 5 6 7 6 4 6 nan nan nan nan nan nan nan nan 5 3 1 5
nan 16 16 10 nan 8 11 nan 10 nan 24 nan nan nan nan nan nan nan nan nan nan nan nan 8 nan nan nan nan nan 11 10 7 8 6 nan nan 8 8 nan nan nan nan nan 8 5 3 2 6 7
nan 15 5 4 5 4 11 7 nan 22 nan nan nan nan nan nan nan nan nan nan nan nan nan nan nan nan nan 3 nan 7 1 4 4 5 7 13 15 11 10 nan nan 6 5 5 3 4 6 4 5
3 nan nan 6 11 6 3 11 6 nan nan nan nan nan nan nan nan nan nan nan nan nan nan nan 6 4 3 2 3 1 3 1 4 4 8 10 12 11 7 7 5 6 3 3 8 9 10 15 14
7 nan nan nan 3 nan nan 10 15 17 nan nan nan nan nan nan nan nan nan nan nan nan nan nan 5 5 3 5 3 3 8 7 6 6 7 8 16 18 12 9 7 10 7 8 9 12 15 13 15
nan nan nan nan nan nan 9 nan 8 nan nan nan nan nan nan nan nan nan nan nan nan nan nan nan nan 7 5 5 nan 7 9 8 10 9 13 17 17 26 27 23 20 20 19 16 14 14 12 12 11
nan nan 13 9 10 11 8 5 nan 15 20 9 12 4 nan nan nan nan nan nan nan nan nan nan nan nan 9 9 11 12 9 nan 11 15 13 22 23 27 30 27 26 23 25 24 22 19 18 10 10
nan nan nan nan 16 13 16 4 5 11 20 8 1 1 6 9 nan nan nan nan nan nan nan nan nan nan nan 11 12 nan nan 15 16 14 18 22 22 25 24 26 26 25 26 28 26 26 22 20 16
22 17 nan nan 6 18 nan 3 4 12 17 21 12 20 6 5 6 9 10 nan nan nan nan nan nan nan 13 13 nan 15 17 15 16 20 23 25 30 28 32 29 26 31 28 29 28 27 29 nan 23
4 17 22 nan nan 16 nan nan 24 nan nan 11 29 2 5 15 21 nan 11 14 15 13 nan nan 11 15 16 17 16 16 17 21 18 17 19 24 30 32 34 32 30 36 37 31 32 28 26 35 32
8 11 nan nan nan 20 22 18 nan nan nan nan 14 nan 20 25 18 16 16 18 15 14 14 15 14 14 13 14 21 21 19 18 18 15 19 20 24 27 30 27 30 27 23 30 27 nan nan nan nan
19 nan nan nan 18 12 nan nan nan nan nan nan nan 19 20 27 29 22 20 12 14 12 13 12 15 13 14 20 18 24 28 19 18 19 21 24 25 28 nan 33 nan 37 nan nan nan nan nan nan nan
27 nan nan nan 21 20 24 nan nan nan 25 nan 36 23 28 38 39 26 12 9 8 16 18 13 16 17 20 23 23 22 25 26 23 22 29 34 34 35 41 40 37 34 34 30 30 nan nan nan nan
nan nan 22 16 nan nan 27 23 20 21 27 nan nan nan nan nan nan 19 8 22 18 16 13 26 24 25 27 28 24 26 31 27 23 26 33 34 38 36 38 40 40 37 32 30 nan nan nan nan nan
nan nan 17 nan nan nan nan nan 16 17 23 nan 27 23 18 nan 9 14 19 17 15 25 27 32 32 29 25 23 23 28 28 33 33 36 36 36 39 38 38 38 39 33 nan nan nan nan nan nan nan
18 nan nan nan nan nan nan 11 14 19 18 nan 17 26 31 26 23 20 16 18 22 25 31 35 36 32 29 29 29 31 32 38 36 39 39 nan nan nan nan nan nan nan nan nan nan nan nan nan nan
nan nan nan nan nan nan nan 14 21 32 33 39 24 23 26 29 29 24 24 24 26 31 35 36 32 35 36 36 36 38 40 40 39 41 39 nan nan nan nan nan nan nan nan nan nan nan nan nan nan
nan nan nan nan nan nan nan 22 26 36 37 38 35 30 20 19 13 19 27 28 30 34 32 33 32 33 36 36 36 39 40 43 nan nan nan nan nan nan nan nan nan nan nan nan nan nan nan nan nan
Wind_Direction
140 129 143 119 113 195 nan 81 37 nan 107 89 82 30 17 144 81 nan 2 340 313 304 294 295 302 306 302 296 291 291 262 246 194 190 233 325 6 38 57 72 66 67 74 59 55 58 65 68 51
153 154 160 118 138 nan 79 69 37 nan nan nan nan nan 116 52 26 328 298 335 320 314 248 281 317 308 308 299 302 281 262 236 196 178 128 43 59 49 78 105 104 87 80 75 73 71 66 60 65
213 nan 137 133 112 nan nan 67 26 5 28 49 nan nan nan nan 333 340 328 330 323 319 285 315 317 321 318 305 304 283 254 214 195 119 129 107 83 114 121 106 92 92 88 87 88 80 74 68 83
62 124 148 127 78 64 nan nan 357 355 35 12 nan nan nan nan 11 336 341 330 326 339 345 340 328 314 317 317 295 280 249 191 159 150 118 110 112 126 118 101 87 87 88 85 92 88 76 81 81
nan nan 123 87 82 nan nan 24 9 34 nan nan nan nan nan 345 328 333 335 336 338 355 354 343 326 313 312 320 305 292 227 158 172 173 160 143 127 126 120 111 112 103 101 99 93 86 93 96 91
nan nan 135 111 87 83 61 27 356 nan 316 313 nan nan 5 337 332 336 341 339 351 346 5 26 7 336 336 289 294 288 183 189 165 169 148 124 123 123 125 124 117 108 97 98 100 100 107 100 94
144 134 96 99 56 40 44 67 2 345 340 353 nan 357 7 352 345 339 341 335 350 355 47 67 71 47 29 10 357 344 190 193 179 150 106 111 106 102 100 104 98 96 91 88 86 94 101 99 106
158 128 100 77 77 5 84 68 11 354 360 nan 344 nan 17 15 350 348 3 16 14 28 54 71 75 69 79 93 56 39 45 19 53 46 50 62 76 111 120 123 107 90 91 93 91 87 82 89 76
134 106 79 80 63 11 334 328 5 19 344 1 31 nan nan 13 0 343 18 57 56 62 76 73 74 70 69 83 84 74 54 58 70 87 78 138 168 157 59 61 75 75 95 100 101 92 85 80 56
89 62 75 56 99 34 339 nan nan 4 357 303 nan nan nan nan 9 360 22 50 64 59 81 77 71 71 71 72 85 96 92 82 76 142 187 158 31 56 94 355 82 140 141 105 92 97 101 135 40
70 61 72 47 22 17 nan nan nan 328 338 nan nan nan nan nan 24 23 24 26 nan 55 70 74 74 80 nan nan 101 110 107 103 96 174 178 138 359 296 279 252 266 nan 129 116 87 58 18 53 77
93 69 73 329 65 2 nan nan nan 346 nan nan nan nan nan nan nan nan 43 38 nan nan 52 49 57 57 nan nan nan nan 81 64 87 28 33 3 245 262 255 nan 6 nan nan nan nan 38 355 24 40
94 101 104 85 300 332 312 264 nan nan nan nan nan nan nan nan nan nan nan nan nan 29 39 54 49 nan nan nan nan 93 84 60 44 48 36 320 311 nan nan nan nan nan nan nan nan 332 350 254 17
nan 109 96 25 nan 310 316 nan 303 nan 328 nan nan nan nan nan nan nan nan nan nan nan nan 39 nan nan nan nan nan 61 53 17 22 51 nan nan 339 342 nan nan nan nan nan 46 47 14 323 31 335
nan 94 44 15 336 300 295 292 nan 341 nan nan nan nan nan nan nan nan nan nan nan nan nan nan nan nan nan 60 nan 85 153 50 1 358 359 327 326 343 349 nan nan 20 336 348 322 28 354 348 348
190 nan nan 140 203 196 212 55 317 nan nan nan nan nan nan nan nan nan nan nan nan nan nan nan 15 47 105 201 148 138 306 354 280 309 316 315 311 331 316 322 355 298 327 327 337 342 308 336 309
194 nan nan nan 278 nan nan 48 21 359 nan nan nan nan nan nan nan nan nan nan nan nan nan nan 329 357 7 267 235 186 254 279 285 280 297 304 306 307 316 322 326 315 325 326 319 319 323 318 313
nan nan nan nan nan nan 164 nan 41 nan nan nan nan nan nan nan nan nan nan nan nan nan nan nan nan 331 324 285 nan 262 247 268 295 305 312 316 318 315 316 320 317 316 314 311 299 305 305 314 315
nan nan 9 343 235 203 151 323 nan 300 266 209 163 122 nan nan nan nan nan nan nan nan nan nan nan nan 301 289 290 283 295 nan 308 308 329 331 329 322 319 316 318 324 316 315 312 311 309 283 298
nan nan nan nan 272 284 210 163 9 277 317 326 70 314 112 148 nan nan nan nan nan nan nan nan nan nan nan 289 288 nan nan 293 291 285 288 287 286 293 304 310 311 314 308 306 298 296 294 292 286
74 53 nan nan 235 273 nan 243 322 344 -0 356 358 314 245 137 46 31 334 nan nan nan nan nan nan nan 325 317 nan 273 273 268 265 271 283 292 295 295 297 294 295 308 295 290 289 288 297 nan 277
60 72 80 nan nan 307 nan nan 349 nan nan 356 358 309 201 217 185 nan 358 343 359 5 nan nan 345 348 339 328 312 301 292 286 286 289 292 293 294 297 301 297 304 303 283 288 287 273 305 309 293
48 188 nan nan nan 308 329 326 nan nan nan nan 12 nan 222 212 170 119 63 11 5 351 359 345 335 331 312 298 299 286 286 290 297 301 309 308 303 304 302 319 290 299 310 303 301 nan nan nan nan
303 nan nan nan 281 295 nan nan nan nan nan nan nan 277 254 204 185 131 74 8 357 352 332 335 321 294 290 293 285 291 293 296 293 300 299 294 300 313 nan 312 nan 316 nan nan nan nan nan nan nan
310 nan nan nan 282 305 303 nan nan nan 339 nan 308 302 274 224 167 129 101 88 11 343 326 309 290 288 290 288 293 296 296 283 285 292 304 306 307 310 306 306 309 311 307 296 287 nan nan nan nan
nan nan 289 299 nan nan 289 317 337 313 321 nan nan nan nan nan nan 137 96 31 8 350 314 297 282 307 293 289 283 269 265 282 287 291 295 294 297 297 297 300 307 308 303 304 nan nan nan nan nan
nan nan 314 nan nan nan nan nan 304 311 314 nan 323 335 330 nan 28 203 211 244 293 323 322 312 301 297 278 278 266 271 279 284 289 288 289 290 293 299 300 302 302 304 nan nan nan nan nan nan nan
312 nan nan nan nan nan nan 319 310 328 309 nan 328 311 305 305 282 253 257 284 287 284 290 292 297 296 290 279 273 273 283 289 291 293 294 nan nan nan nan nan nan nan nan nan nan nan nan nan nan
nan nan nan nan nan nan nan 295 277 309 311 309 312 292 293 292 289 281 290 289 281 284 280 287 285 285 285 279 283 287 287 287 287 289 293 nan nan nan nan nan nan nan nan nan nan nan nan nan nan
nan nan nan nan nan nan nan 264 258 280 291 298 297 290 284 282 281 281 292 293 294 288 284 281 285 287 286 286 290 291 289 288 nan nan nan nan nan nan nan nan nan nan nan nan nan nan nan nan nan